sat.trackr.live / text

‹ back to catalog

STARLINK-35789

NORAD 67113 · 2025-299M

PAYLOAD ACTIVE UNKNOWN

§ Identity

Operator
Country
US
Launch date
2025-12-15
Launch site
AFETR
Launch vehicle
Mass (kg)
RCS (m²)

Purposes: comms

External: N2YO · Heavens-Above · Gunter

§ Orbital elements

Epoch: 2026-05-24T23:48:30.928896Z

Period
94.27 min
Inclination
43.0045°
Eccentricity
0.0002089
Mean motion
15.27568529 rev/d
Perigee alt
481.7 km
Apogee alt
484.5 km
Semi-major
6,861.2 km
B*
1.0174e-3
RAAN
98.2531°
Arg perigee
247.7371°
Mean anomaly
112.3259°
Rev number
2,478

§ Raw data

STARLINK-357891 67113U 25299M   26144.99202464  .00027831  00000+0  10174-2 0  99932 67113  43.0045  98.2531 0002089 247.7371 112.3259 15.27568529 24788

JSON: /api/v1/satellites/67113 · /tle

For live sub-satellite position, see the globe view (requires WebGL).

§ Visibility from observer

Set your observer location to see the next 7 days of passes ≥ 10°. The values pass through the URL so the page stays shareable.

No JS? Fill the form by hand. The geolocation button needs JavaScript.